Regional Weather Roundup
Issued by NWS

Home | Current Version | Previous Version | Graphics & Text | Print | Product List | Glossary Off
Versions: 1 2 3 4 5 6 7 8 9 10 11 12 13 14 15 16 17 18 19 20 21 22 23 24 25 26 27 28 29 30 31 32 33 34 35 36 37 38 39 40 41 42 43 44 45 46 47 48 49 50

000
ASUS43 KMPX 020210
RWRMN
WEATHER ROUNDUP FOR MINNESOTA
NATIONAL WEATHER SERVICE TWIN CITIES/CHANHASSEN MN
900 PM CDT MON JUN 01 2015


NOTE: "FAIR" INDICATES FEW OR NO CLOUDS BELOW 12,000 FEET WITH NO
SIGNIFICANT WEATHER AND/OR OBSTRUCTIONS TO VISIBILITY. N/A MEANS
CURRENT SKY AND/OR WEATHER CONDITIONS ARE NOT AVAILABLE.

MNZ060>063-068>070-020300-
   Twin Cities Metro

CITY           SKY/WX    TMP DP  RH WIND       PRES   REMARKS
TWIN CITIES    PTCLDY    65  40  39 SE9       30.11F
ST PAUL        PTCLDY    64  43  46 E9        30.12F
CRYSTAL        PTCLDY    66  40  38 SE7       30.10F
BLAINE         MOCLDY    64  39  39 SE6       30.12F
LAKEVILLE      PTCLDY    63  43  48 SE6       30.12F
EDEN PRAIRIE   PTCLDY    63  41  44 SE9       30.10F
SOUTH ST PAUL  PTCLDY    65  39  39 SE3       30.12F
LAKE ELMO      FAIR      61  43  51 SE6       30.14F
$$
MNZ001>005-007-008-013>017-022>024-027-028-020300-
   Northwest Minnesota

CITY           SKY/WX    TMP DP  RH WIND       PRES   REMARKS
BEMIDJI        PTCLDY    62  38  42 SE13      30.02F
HALLOCK        PTCLDY    68  45  42 SE16      29.89S
ROSEAU         PTCLDY    64  48  55 S10       29.96F
WARROAD        CLOUDY    64  48  55 SE12      29.97F
THIEF RVR FALL CLEAR     64  45  48 SE12G17   29.96F
CROOKSTON      CLEAR     66  46  48 SE14      29.92F
FOSSTON        CLEAR     63  45  51 SE10      29.98F
DETROIT LAKES  CLEAR     66  45  45 S13G21    30.00F
MOORHEAD       CLEAR     70  46  43 SE16      29.92F
PARK RAPIDS    MOCLDY    65  40  39 SE15      30.03F
MAHNOMEN       FAIR      63  46  52 SE10      29.97F
$$
MNZ006-009>011-018-025>026-020300-
   North Central Minnesota

CITY           SKY/WX    TMP DP  RH WIND       PRES   REMARKS
BAUDETTE       MOCLDY    62  40  44 S9        30.00F
FLAG ISLAND    MOCLDY    61  48  63 S15       29.97F
INTL FALLS     CLOUDY    64  37  36 S3        30.04S
WASKISH        CLOUDY    63  43  48 SE6       30.02F
BIG FORK       CLOUDY    63  39  42 S6        30.07S
LONGVILLE      MOCLDY    61  37  41 SE7       30.07F
GRAND RAPIDS   CLOUDY    63  36  36 S9        30.10R
CRANE LAKE     MOCLDY    59  37  44 CALM      30.09F
ORR            CLOUDY    61  36  39 SE7       30.06S
COOK           CLOUDY    63  36  36 S8        30.09F
WALKER         FAIR      61  36  39 SE8       30.04F
$$
MNZ012-019>021-037-020300-
   Northeast Minnesota

CITY           SKY/WX    TMP DP  RH WIND       PRES   REMARKS
DULUTH         PTCLDY    50  28  42 E9        30.15S
ELY            PTCLDY    57  36  44 SE7       30.13S
HIBBING        MOCLDY    59  38  45 SE8       30.11S
EVELETH        PTCLDY    57  36  44 SE9       30.13S
DULUTH HARBOR  PTCLDY    45  37  76 E9        30.18S
TWO HARBORS    PTCLDY    48  32  53 NE7       30.15F
SILVER BAY     PTCLDY    45  28  53 NE5       30.16F
GRAND MARAIS     N/A     44  36  73 NE3       30.18F
G MARAIS ARPRT CLEAR     46  27  46 E5        30.19F
$$
MNZ029>031-032-039>041-046>048-054>057-064-020300-
   West Central Minnesota

CITY           SKY/WX    TMP DP  RH WIND       PRES   REMARKS
FERGUS FALLS   CLEAR     68  45  42 SE15G22   29.97F
WHEATON        PTCLDY    66  48  52 SE13      29.96F
MORRIS         PTCLDY    70  46  43 SE14      29.98F
ALEXANDRIA     CLEAR     66  42  41 SE15      30.04F
ELBOW LAKE     FAIR      67  45  45 SE13G21   29.99S
WADENA         CLEAR     63  45  51 SE10      30.03F
GLENWOOD       CLEAR     64  45  48 SE12      30.04F
APPLETON       PTCLDY    72  43  35 SE9       29.98F
BENSON         CLEAR     70  39  32 S13       30.01S
ORTONVILLE     PTCLDY    72  46  40 SE10      29.96F
MADISON        PTCLDY    72  45  37 SE13      29.98F
WILLMAR        FAIR      70  43  37 SE15      30.05F
$$
MNZ033>034-036-042>043-049>051-058-059-020300-
   Central Minnesota

CITY           SKY/WX    TMP DP  RH WIND       PRES   REMARKS
ST CLOUD       CLOUDY    64  38  38 SE7       30.09F
SAUK CENTRE    FAIR      64  43  46 SE10      30.05F
PAYNESVILLE    PTCLDY    62  42  47 E9        30.07F
AITKIN         CLOUDY    63  39  42 SE5       30.09S
PINE RIVER     PTCLDY    61  39  44 SE9       30.10F
BRAINERD       MOCLDY    62  35  36 SE8       30.08F
STAPLES        CLOUDY    63  37  39 SE8       30.05F
LONG PRAIRIE   FAIR      63  43  48 E9        30.06F
LITTLE FALLS   PTCLDY    61  34  36 SE7       30.08F
LITCHFIELD     CLOUDY    66  43  42 SE8       30.08F
BUFFALO        PTCLDY    64  37  37 E6        30.10F
MAPLE LAKE     CLEAR     65  44  46 SE3       30.10F
$$
MNZ037-044-045-052-053-020300-
   East Central Minnesota

CITY           SKY/WX    TMP DP  RH WIND       PRES   REMARKS
PRINCETON      PTCLDY    63  39  42 E3        30.11F
MORA           PTCLDY    59  36  41 CALM      30.13F
CAMBRIDGE      PTCLDY    64  45  48 SE3       30.10F
RUSH CITY      PTCLDY    59  42  52 S3        30.12F
MOOSE LAKE     PTCLDY    52  36  54 NE3       30.12F
HINCKLEY       FAIR      61  43  51 CALM      30.12F
CLOQUET        PTCLDY    46  30  53 E5        30.14F
MCGREGOR       PTCLDY    59  37  44 SE6       30.11F
$$
MNZ071>073-080-081-089-090-097-098-020300-
   Southwest Minnesota

CITY           SKY/WX    TMP DP  RH WIND       PRES   REMARKS
MONTEVIDEO     PTCLDY    70  46  43 S12       30.01F
GRANITE FALLS  PTCLDY    71  44  37 SE14      30.03S
CANBY          PTCLDY    70  47  45 SE8       30.00S
MARSHALL       PTCLDY    72  45  37 S15       30.01S
REDWOOD FALLS  CLEAR     70  41  34 SE17      30.04F
OLIVIA         CLEAR     68  41  37 SE12      30.04F
PIPESTONE      CLEAR     70  46  43 S10       30.02F
WINDOM         CLEAR     66  43  42 SE9       30.07S
WORTHINGTON    PTCLDY    70  43  37 SE10      30.05F
JACKSON        CLEAR     68  43  40 SE9       30.08F
TRACY          PTCLDY    70  47  44 SE9       30.04S
SLAYTON        PTCLDY    68  45  42 SE13      30.05S
$$
MNZ065>067-074>077-082>085-091>093-020300-
   South Central Minnesota

CITY           SKY/WX    TMP DP  RH WIND       PRES   REMARKS
MANKATO        PTCLDY    64  36  34 SE9       30.10S
NEW ULM        CLEAR     64  39  39 SE8       30.08S
ST JAMES       CLEAR     68  39  34 SE10      30.09S
FAIRMONT       CLEAR     66  36  32 SE13      30.08F
GLENCOE        CLEAR     66  41  40 SE8       30.09S
FARIBAULT      PTCLDY    63  43  48 SE6       30.12F
OWATONNA       PTCLDY    63  39  42 SE7       30.12F
WASECA         PTCLDY    63  39  42 SE6       30.12F
ALBERT LEA     PTCLDY    64  41  42 SE5       30.12F
$$
MNZ078>079-086>088-094>096-020300-
   Southeast Minnesota

CITY           SKY/WX    TMP DP  RH WIND       PRES   REMARKS
ROCHESTER      PTCLDY    58  42  55 SE8       30.15F
RED WING       PTCLDY    64  43  45 SE8       30.13F
STANTON        PTCLDY    64  41  42 SE6       30.11F
DODGE CENTER   PTCLDY    63  43  48 SE7       30.14S
WINONA         PTCLDY    61  43  51 CALM      30.16F
AUSTIN         PTCLDY    61  43  51 SE6       30.13S
PRESTON        PTCLDY    60  40  48 SE5       30.16F
$$
ABBREVIATIONS USED IN REMARKS
   TC - TEMPERATURES IN CELSIUS
  WCI - WIND CHILL INDEX
   HX - HEAT INDEX
  VSB - VISIBILITY
$$



USA.gov is the U.S. government's official web portal to all federal, state and local government web resources and services.